Showing default

COSMOS 1987 (GLONASS), 19749

Orbit data source: Space-Track

COSMOS 1987 (GLONASS), 19749 is a payload satellite owned by UNKS (CIS) in MEO that was launched on Tue, 10 Jan 1989 UTC via a PROTON-K/DM-2 launch vehicle from the Tyuratam Missile And Space Complex (TTMTR). Payload-class satellites include a variety of spacecraft equipped with specific instruments for various scientific and technological missions. These include communications satellites like Starlink; space stations such as the ISS; scientific satellites like the Hubble; Earth observation satellites from companies like Planet Labs, Umbra, and HawkEye 360; GPS; miniature CubeSats for education and research; and military/defense satellites.

Loading next visibility...
Identifier
19749, 1989-001A
Orbit
MEO
Country
Flag of CISCIS
Related business
Manufacturer
Omsk Av. Zav.
Mission
Non-operational Defense Navigation
Bus & Motor
URAGAN, Unknown motor
Mass
1,300 kg wet, ~1,200 kg dry
Launch date (UTC)
1989-01-10 (37 years ago)
Launch vehicle
PROTON-K/DM-2
Launch site
Tyuratam Missile And Space Complex (TTMTR)
Object type
Payload
Rocket body
Debris
Shape & HBR
Cyl + 2 Pan, 4.2 m
Radar Cross Section
14.707 m², Large (>1 m²)

Expand to show TLE details & history
Last TLE update: 5 days ago

TLE from 5 days ago
0 COSMOS 1987 (GLONASS)
1 19749U 89001A   25346.19195191 -.00000039  00000-0  00000-0 0  9997
2 19749  64.8256  78.6886 0004952 232.9451 126.5097  2.13073215287306
Epoch: 2025-12-12T04:36Z
TLE epoch observation values (Epoch: 2025-12-12T04:36:24.645Z)
Latitude
-0.46775°
Longitude
-71.76589°
Altitude
19,140.34 km
Speed
3.952 km/s
True Right ascension
05h 13m 53s
True Declination
0° 28' 01"
Sunlit
Object was in daylight at epoch
Visualization orbit readout
Latitude
Unknown
Longitude
Unknown
Altitude
Unknown
Speed
Unknown
Apparent Right ascension
Unknown
Apparent Declination
Unknown
Sunlit
N/A
Visualization observer readout
Local Sidereal Time
02:42:41
Azimuth
Unknown
Elevation
Unknown
Doppler factor
Unknown
Orbital elements
Apogee altitude
19,144.438 km
Perigee altitude
19,119.173 km
Semi-major axis
25,509.943 km
Eccentricity
0.0005
Inclination
64.8256°
RAAN
78.6886°
Arg. of periapsis
232.9451°
True anomaly
126.55529°
Mean anomaly
126.5097°
Eccentric anomaly
126.5325°
Mean motion
0.5327 °/min
Orbital period
675.81 mins
BSTAR
0
Loading maneuver chart data...
Computing Atmospheric mass density...
Loading historical data...
Loading historical data...
Loading historical data...
Loading historical data...
Loading historical data...
Loading historical data...
Loading historical data...

Documentation

Showing up to 5 results
|